Theta_e
324 325 326 326 326 327 327 328 328 328 328 329 330 330 328 327 327 326 326 325 324 324 325 325 325 326 327 328 328 329 328 328 328 328 328 327 327 328 328 328 328 328 328 328 328 328 327 327 326 326 327 327 327 326 326 326 326 326 326 325 325 324 323 322 321 318 315 313 312 311 312 312 309 308 308 309 308 308 308 308 308 308 307 306 306
324 325 326 326 326 327 327 328 328 328 329 329 330 329 327 327 327 326 326 325 324 324 324 325 326 327 328 328 329 329 328 328 327 327 327 327 327 327 327 327 327 327 327 328 328 327 327 326 326 326 326 327 327 326 325 326 326 326 326 326 325 324 323 322 321 319 315 312 312 311 311 310 309 308 308 308 308 308 308 308 308 308 308 308 307
323 324 325 326 326 326 327 327 328 328 328 328 329 329 327 327 328 327 326 324 323 323 324 325 326 327 328 329 328 328 327 326 326 326 326 326 326 327 326 326 326 326 327 327 327 327 326 326 326 326 326 326 327 327 325 325 326 326 326 326 325 325 323 322 321 318 315 313 312 312 310 309 308 309 309 309 309 308 308 308 308 308 309 308 308
323 323 324 325 326 326 327 327 327 328 327 328 329 329 329 328 328 327 326 324 323 323 323 324 325 326 327 328 327 327 326 325 325 326 325 325 325 326 326 326 326 326 326 326 326 326 326 325 325 326 326 326 326 327 326 324 325 326 326 326 326 325 323 321 321 318 314 313 312 312 311 309 308 309 309 309 309 308 308 308 308 308 309 309 309
323 324 324 325 325 326 327 326 326 327 327 326 328 329 329 329 328 327 325 323 322 323 323 323 323 324 326 327 326 325 324 324 324 324 325 325 325 325 325 325 325 326 326 326 325 325 325 324 324 325 326 326 327 327 326 324 324 325 326 325 325 325 323 322 322 320 315 312 312 313 313 311 309 309 309 310 310 309 308 308 308 308 309 309 310
321 323 324 325 325 326 327 326 325 325 326 326 327 328 329 329 328 327 324 322 322 322 322 322 322 323 325 326 326 324 324 324 323 323 324 325 324 324 324 324 325 325 326 326 326 326 325 323 323 324 325 325 326 326 326 325 324 324 325 325 325 325 324 323 323 320 315 312 314 316 317 316 312 310 310 310 310 310 309 309 308 308 309 311 312
318 320 322 324 326 326 327 327 326 325 326 326 326 328 328 327 327 326 323 321 321 322 320 320 321 321 323 325 326 324 324 324 323 323 324 324 324 324 323 323 323 323 325 326 326 326 325 323 323 324 324 325 325 326 325 325 324 324 325 325 325 325 324 324 322 318 314 313 315 318 320 319 315 312 310 310 310 310 310 310 309 309 310 311 312
316 317 319 322 325 326 326 327 327 326 327 327 327 328 328 327 326 325 323 321 320 320 319 319 320 319 320 323 324 323 323 323 323 323 323 322 322 322 323 323 323 322 323 324 325 326 325 323 323 324 324 325 325 325 325 324 324 324 324 324 324 324 324 324 322 318 316 315 316 318 319 318 315 313 311 310 310 310 310 310 311 311 311 312 312
314 315 316 319 322 324 325 326 327 327 327 327 327 327 327 327 327 326 324 321 320 320 320 320 320 319 318 321 323 322 322 322 322 323 323 322 322 322 322 323 323 322 323 324 325 325 324 324 324 324 324 324 324 324 324 324 324 324 324 324 324 324 324 324 323 321 320 319 319 320 319 315 314 313 311 311 311 310 310 310 311 312 312 312 312
313 314 315 316 319 322 324 325 326 327 327 327 326 326 326 326 326 326 324 322 320 320 321 321 320 318 318 321 323 322 321 321 322 323 323 323 323 323 323 323 323 323 323 324 324 324 324 324 324 324 324 323 323 323 324 324 324 324 324 325 324 324 323 323 323 323 323 323 322 321 317 314 314 313 312 312 311 311 311 311 311 312 312 312 312
312 313 314 315 316 319 322 324 325 326 327 328 327 325 325 325 326 325 324 322 321 321 322 322 320 317 318 322 323 322 322 322 322 323 324 323 323 324 324 324 324 324 324 324 324 323 323 323 323 323 323 322 322 322 323 323 324 324 324 325 325 323 322 323 323 323 323 323 322 320 316 314 314 313 312 312 312 312 312 312 312 312 311 312 313
311 312 312 313 314 316 319 321 323 325 326 327 327 326 325 326 327 326 325 324 322 322 323 323 321 317 318 321 323 323 323 322 322 322 323 323 324 325 325 324 323 324 324 324 324 323 324 323 323 323 323 322 322 322 323 323 324 324 324 324 324 323 321 322 324 323 323 323 322 320 317 315 314 314 313 312 312 312 313 312 312 312 312 312 313
311 311 311 312 313 314 316 318 321 323 324 325 326 326 326 327 327 327 325 324 323 322 323 323 322 318 318 321 323 323 323 323 322 323 323 323 324 324 324 323 323 324 324 324 324 323 324 324 325 324 324 323 323 323 323 324 324 324 324 323 323 323 322 323 323 322 322 321 320 318 316 314 314 314 313 312 311 312 313 313 312 312 312 313 314
310 310 311 311 312 312 313 315 318 320 321 323 325 326 326 326 327 327 326 324 323 323 323 323 323 321 320 322 324 323 323 323 323 323 323 323 323 323 323 323 323 323 323 324 323 323 323 323 324 324 323 323 324 324 324 324 324 323 322 322 322 323 323 323 322 321 321 319 318 316 315 314 314 314 313 312 312 313 313 314 314 314 314 315 315
309 309 310 310 310 311 311 313 315 317 319 320 322 324 325 325 326 327 327 326 325 324 323 323 323 322 321 322 323 322 323 323 322 323 323 323 322 322 322 322 322 322 323 323 323 323 322 321 321 321 322 322 324 324 324 324 323 322 320 320 320 321 321 320 320 319 318 317 316 315 315 314 314 314 314 313 314 315 316 316 316 316 316 316 316
307 308 309 309 309 309 310 311 312 313 315 317 318 321 323 323 324 325 326 326 326 325 324 323 324 324 323 323 323 322 322 322 322 323 323 322 322 321 322 321 321 321 322 322 322 322 321 320 320 320 321 322 322 323 323 323 322 321 320 318 317 318 318 317 317 317 316 316 315 315 315 316 316 315 315 316 316 317 316 316 316 316 316 316 316
306 307 307 308 308 309 309 310 311 311 312 313 314 317 320 322 322 323 324 324 324 324 324 324 324 324 324 323 322 322 322 322 323 324 323 322 322 321 321 321 321 320 321 321 322 322 321 320 319 320 320 320 321 322 322 322 320 320 319 318 316 317 316 315 316 316 316 316 316 316 316 316 316 316 317 317 317 316 317 316 316 316 316 315 315
303 305 306 307 308 308 308 309 310 310 310 310 310 312 316 318 319 320 321 321 321 321 321 322 324 324 323 323 322 322 322 322 323 323 322 321 322 321 321 321 321 321 320 321 322 322 321 320 319 319 320 320 320 321 321 320 319 319 318 318 317 317 316 315 316 316 316 316 316 316 316 316 317 316 316 317 317 316 315 315 314 313 312 312 311
301 302 304 306 307 307 308 308 309 309 309 308 308 309 311 313 315 316 316 316 316 315 314 316 320 322 321 321 322 322 322 322 322 322 322 321 321 321 321 320 320 320 320 321 321 321 321 320 320 320 319 319 319 319 318 317 317 318 318 318 318 317 317 317 317 317 316 315 315 315 315 315 315 314 313 314 314 313 311 310 309 308 307 306 305
300 301 302 304 306 306 307 308 308 308 308 307 307 307 307 309 310 312 312 311 310 310 309 310 313 318 320 320 320 320 320 321 321 321 321 321 320 320 320 320 320 320 320 320 321 320 320 320 319 319 318 318 318 318 317 317 318 318 318 318 318 318 317 317 317 317 316 315 315 314 313 312 312 311 309 309 308 307 306 305 304 303 303 302 302
300 300 300 302 304 305 306 307 307 307 307 306 306 305 305 306 307 308 308 308 307 307 307 307 308 313 318 318 317 317 318 319 320 320 320 320 319 319 319 319 319 319 319 319 319 319 319 319 318 318 317 317 318 318 318 318 318 318 318 318 318 317 317 316 315 315 314 312 311 309 308 307 307 306 305 304 304 303 302 302 301 301 301 300 300
301 300 300 300 301 303 305 306 306 307 306 306 306 305 305 305 305 305 306 306 306 306 307 306 306 308 312 314 313 314 316 316 317 318 319 319 319 318 318 318 318 318 319 319 318 318 318 317 317 317 317 317 318 317 318 318 317 317 316 315 315 314 313 312 311 310 309 308 306 305 304 304 303 303 302 301 301 300 300 300 299 299 299 298 298
300 300 300 300 299 300 302 304 305 306 306 306 305 305 305 305 305 305 305 305 305 305 305 305 305 306 309 311 311 312 313 313 314 315 317 318 317 317 316 317 316 316 317 317 317 317 317 316 315 315 314 315 315 314 313 313 313 313 311 310 310 309 308 308 307 306 305 304 303 303 302 301 301 300 300 299 299 298 298 298 298 297 297 297 297
300 300 300 300 299 298 299 301 303 304 305 305 305 305 305 304 304 304 304 305 305 304 304 305 305 306 308 309 310 311 312 312 312 313 314 315 315 314 313 314 313 313 314 314 314 313 313 313 312 310 309 309 310 309 308 308 309 309 308 307 306 305 304 303 303 302 302 301 300 300 299 299 299 298 298 297 297 297 297 297 297 296 296 297 297
300 300 300 300 300 299 298 298 300 302 303 304 304 304 304 304 303 303 303 304 304 304 304 304 305 305 306 307 308 309 310 311 312 312 312 312 313 312 311 310 310 310 311 311 310 309 309 308 307 305 305 305 305 305 305 304 304 304 304 303 302 301 301 300 300 300 299 299 299 298 298 298 297 297 297 297 296 296 296 296 297 297 297 297 297
300 300 300 300 300 300 299 298 298 299 300 301 302 302 302 302 302 303 303 303 303 303 303 303 304 304 305 305 305 305 306 307 308 308 308 309 310 310 309 308 307 307 308 307 306 305 305 304 303 302 302 302 301 301 301 301 301 301 301 301 300 300 300 299 299 299 298 298 298 297 297 297 297 296 296 296 296 297 297 297 297 297 297 297 297
299 299 299 299 300 300 300 299 299 298 298 298 299 299 299 300 300 301 301 301 301 302 302 302 303 303 303 303 303 303 303 303 304 304 304 305 306 306 305 305 304 304 304 304 303 302 302 302 301 301 301 301 301 300 300 300 300 300 300 300 300 299 299 298 298 297 297 297 297 297 296 296 296 296 297 297 297 297 297 297 297 297 297 297 297
299 299 299 299 299 299 300 300 300 299 299 299 298 298 298 298 298 298 298 299 299 300 301 301 301 301 302 302 302 302 302 302 302 302 302 302 303 303 303 302 302 302 302 301 301 300 300 301 301 300 300 301 301 301 300 300 300 299 299 299 299 299 299 298 297 297 296 296 296 296 296 297 297 297 297 297 297 297 297 297 297 297 297 297 297
298 298 298 298 298 298 299 299 299 299 299 299 299 298 298 298 297 297 297 297 297 298 298 299 300 300 300 300 301 301 301 302 302 302 301 301 301 302 302 302 301 301 301 301 300 300 300 300 300 300 300 300 300 300 299 299 299 298 299 299 298 298 298 297 296 296 296 296 297 297 297 297 297 297 297 297 297 297 296 296 296 296 296 296 296
298 298 298 298 298 298 298 298 299 299 299 299 299 299 298 298 298 297 297 297 297 297 297 297 297 298 298 298 299 299 300 300 300 300 301 301 300 301 301 301 300 300 300 299 299 299 299 299 299 298 299 299 299 298 299 298 299 299 299 298 297 297 296 296 296 296 297 297 297 297 297 297 297 297 296 296 296 296 296 296 296 296 296 296 295
298 298 298 298 298 297 297 297 298 298 298 299 299 299 299 298 298 298 297 297 297 297 297 296 297 297 297 297 297 298 298 298 299 299 299 299 299 299 299 299 299 299 299 299 298 298 298 298 298 298 298 298 298 298 299 299 299 298 297 297 296 296 296 297 297 297 297 297 297 297 296 296 296 296 296 295 295 295 295 295 295 295 295 295 295
298 299 299 298 297 297 297 297 298 298 298 298 299 299 299 299 298 298 298 297 297 297 297 296 296 296 297 297 297 297 297 297 297 297 298 298 298 298 298 298 298 298 299 299 299 298 298 298 298 298 298 298 298 298 298 297 297 297 296 296 297 297 297 297 297 297 296 296 296 296 296 295 295 295 295 295 295 294 294 294 294 294 294 294 294
297 298 298 298 297 297 297 297 298 298 298 298 298 299 299 299 298 298 297 297 297 297 297 297 296 296 296 297 297 297 297 297 297 297 297 297 297 298 298 298 299 299 299 299 299 298 298 298 298 297 297 297 297 297 296 296 296 296 297 297 297 296 296 296 296 296 296 295 295 295 295 295 294 294 294 294 294 293 293 293 293 293 293 293 293
297 298 298 297 297 297 297 297 297 297 297 298 298 298 298 298 299 298 298 297 296 296 296 296 297 296 296 296 297 297 298 298 298 298 298 298 298 298 299 299 299 299 299 299 299 299 298 298 298 298 297 296 296 296 296 296 296 296 296 296 296 296 296 295 295 295 294 294 294 294 294 293 293 293 293 293 293 293 293 293 293 293 293 293 293
297 298 298 297 297 297 297 297 297 296 296 297 297 298 298 298 298 298 298 297 296 296 296 296 296 296 296 296 296 297 298 298 298 298 299 299 299 299 299 299 299 299 299 299 299 299 298 298 298 297 296 296 295 296 296 296 296 295 295 295 295 295 295 294 294 294 293 293 293 293 292 292 292 292 292 292 292 292 292 292 292 292 292 292 292
297 298 297 296 296 297 297 296 296 296 296 296 297 297 297 298 298 298 298 297 297 296 296 296 295 295 296 296 296 296 297 298 298 298 299 299 299 299 299 299 299 299 299 299 299 298 298 297 297 296 295 295 295 295 295 295 295 295 294 294 294 294 294 293 293 293 292 292 292 292 291 291 291 291 291 291 291 291 291 291 292 292 292 292 292
298 298 298 297 296 296 296 296 296 296 296 296 296 297 297 297 297 297 298 297 297 296 296 296 295 295 295 295 296 295 296 296 297 298 298 298 298 298 298 298 299 299 298 298 298 298 297 297 296 295 295 295 295 294 294 294 294 294 294 294 293 293 293 292 292 291 291 291 291 290 290 290 290 290 290 290 290 290 291 291 291 291 292 292 292
297 297 298 297 297 296 296 296 296 296 296 296 296 296 296 296 297 297 297 297 296 296 296 295 295 295 295 295 295 295 295 295 296 296 297 297 298 298 298 298 298 298 298 298 297 297 297 296 295 295 295 294 294 294 293 293 293 293 293 293 292 292 292 291 290 290 290 290 290 290 290 290 290 290 290 290 290 290 290 291 291 292 292 292 292
297 297 297 297 297 297 296 296 296 296 296 296 296 296 295 295 296 296 296 296 296 295 295 295 294 294 294 294 294 294 294 294 294 294 295 295 296 296 297 297 297 297 297 297 297 296 296 295 294 294 294 293 293 293 293 293 293 292 292 292 291 291 290 290 290 289 289 289 289 289 289 289 289 289 289 289 290 290 290 290 291 291 291 292 292
297 297 296 296 297 297 297 297 296 296 296 296 296 295 295 295 295 295 295 295 295 295 295 295 294 293 293 293 293 293 293 293 293 293 293 294 294 294 295 296 296 296 296 296 296 295 294 294 294 293 293 292 292 292 292 292 292 292 291 291 291 290 290 290 290 290 290 289 289 289 289 289 289 289 289 289 289 290 290 290 290 290 290 291 291
297 297 296 296 296 297 297 297 296 296 296 296 295 295 295 294 294 294 294 295 295 294 294 294 293 292 292 292 292 292 292 292 292 292 293 293 293 293 293 294 294 295 295 295 294 293 293 293 293 293 292 292 292 292 291 291 291 291 291 290 290 290 290 290 290 290 290 290 290 289 289 289 289 289 289 289 289 289 289 289 289 290 290 290 290
296 296 296 297 297 297 297 297 296 296 296 296 295 295 295 294 293 293 294 294 294 293 293 293 293 292 292 292 292 291 291 291 291 292 292 292 292 292 292 292 293 293 294 294 293 292 292 293 293 292 292 292 291 291 291 291 291 291 290 290 290 290 290 290 290 290 290 290 290 289 289 289 289 289 289 289 289 289 289 289 289 289 289 290 289
297 297 297 297 297 297 297 297 296 296 296 295 295 295 294 294 293 293 293 293 294 293 293 293 293 292 292 291 291 291 291 291 291 291 292 292 293 292 292 292 293 294 294 293 292 292 292 292 292 292 291 291 291 291 291 290 291 291 290 290 290 290 290 290 290 290 290 290 290 290 289 289 289 289 289 289 289 289 289 289 289 289 289 289 289
297 297 297 297 296 297 297 296 296 296 295 295 296 296 295 294 294 293 293 293 294 294 293 293 293 292 291 291 291 292 292 291 291 292 292 293 293 293 293 293 294 294 293 292 291 291 292 292 291 291 291 291 291 291 291 291 291 291 290 290 290 290 290 289 289 289 289 290 290 290 289 289 290 289 289 289 289 289 289 289 289 289 289 289 289
297 296 296 296 296 296 296 296 296 296 296 296 296 296 295 294 294 293 293 293 293 293 294 294 293 292 291 292 292 292 291 291 291 292 292 293 293 293 293 293 294 293 293 292 292 292 292 292 291 291 291 291 291 291 291 291 290 290 290 289 289 289 289 289 289 289 289 290 290 290 290 289 290 290 289 289 289 289 289 290 290 289 289 289 289
297 297 297 296 296 296 296 296 296 295 296 296 296 296 296 295 294 293 293 293 293 293 293 293 293 292 292 292 292 292 291 291 291 290 291 291 291 292 292 293 293 293 293 293 292 292 292 291 291 291 291 291 291 291 291 291 290 289 289 288 289 289 289 289 289 290 290 290 289 290 290 290 290 289 289 289 289 289 289 290 289 289 289 289 288
295 297 297 297 296 296 296 296 296 296 295 295 296 296 296 295 294 294 293 293 293 293 292 292 293 292 292 292 292 292 292 292 291 290 290 290 290 290 290 291 291 292 292 292 292 292 291 291 290 290 290 291 291 291 291 291 290 289 288 288 289 289 290 290 290 290 290 290 290 290 289 289 289 289 289 289 289 289 289 289 289 289 289 289 288
292 295 296 297 296 295 295 295 296 296 296 295 295 296 296 295 295 294 293 293 293 293 292 292 293 293 292 292 292 292 292 292 292 291 291 291 290 290 290 289 290 290 290 291 291 291 291 291 291 291 291 291 291 291 291 291 290 288 288 288 289 290 290 290 290 290 290 290 290 290 289 289 289 289 289 288 287 287 288 289 289 289 289 289 288
290 293 296 296 295 294 294 295 296 296 296 295 295 295 295 295 295 294 294 293 293 293 292 292 293 293 292 292 292 292 292 292 292 292 292 292 292 291 290 289 289 289 289 289 289 289 290 291 291 291 291 291 292 292 291 290 289 288 288 289 290 290 290 290 290 290 290 289 289 289 289 289 289 288 288 287 286 285 286 288 289 289 289 288 288
289 292 295 295 294 293 294 294 295 295 295 295 295 295 295 295 295 294 294 293 294 293 293 293 293 293 293 292 292 292 293 292 292 292 292 292 292 292 291 290 289 289 289 289 288 288 288 288 288 288 289 289 290 291 291 289 288 288 289 290 290 290 290 290 290 290 290 289 289 288 288 288 288 287 286 285 285 284 285 287 289 289 289 288 288
288 290 293 295 294 293 293 294 294 295 295 295 294 295 295 295 295 294 294 293 293 293 293 293 294 294 293 292 292 292 292 292 292 292 292 292 292 292 291 290 289 289 289 289 289 288 288 288 288 287 286 287 288 289 289 288 288 289 290 290 290 290 290 290 290 290 290 289 289 289 288 288 287 286 285 285 285 284 284 286 288 289 289 289 289
Wind_Speed
14 14 14 13 13 14 15 17 17 17 18 20 18 15 15 15 16 17 18 18 19 19 19 19 19 19 19 19 19 18 18 18 17 16 16 17 17 17 17 17 17 17 17 18 18 19 20 21 21 21 22 21 19 17 16 16 16 16 17 16 16 16 16 16 13 8 7 12 14 13 13 12 11 11 10 9 8 9 9 9 8 8 8 8 9
15 15 15 14 14 14 14 15 15 14 16 19 18 16 16 16 16 18 20 21 21 21 20 19 19 19 19 19 17 17 17 17 17 16 16 16 17 17 17 17 17 18 18 19 19 20 21 22 22 23 23 23 21 18 17 17 17 18 19 18 17 17 17 16 14 10 8 12 14 14 14 13 11 10 10 8 8 9 9 9 8 7 7 8 9
17 16 17 16 15 15 14 13 12 13 15 18 19 18 17 17 17 19 22 23 22 21 20 20 19 19 18 17 16 16 17 16 16 16 16 16 16 16 16 16 17 18 19 20 21 21 21 22 23 23 23 23 23 21 19 18 18 19 19 18 17 17 18 17 15 12 10 11 13 13 14 13 12 11 9 8 8 9 10 10 9 8 8 9 10
18 18 18 18 16 15 15 14 13 12 11 14 18 18 18 17 18 20 23 23 22 20 20 19 19 19 18 17 17 17 17 16 16 16 16 16 15 15 15 16 16 17 18 20 21 21 22 21 22 22 22 24 25 24 21 19 19 19 19 18 18 18 18 17 16 14 13 12 12 12 13 13 13 12 10 9 9 9 10 11 11 11 10 10 10
19 18 18 19 18 15 14 14 15 14 11 10 14 16 16 17 18 20 22 22 21 20 20 19 19 19 18 17 17 17 16 16 15 16 15 15 15 15 15 16 16 16 17 19 20 20 20 20 20 21 22 24 26 25 22 21 20 20 21 20 19 19 19 19 17 16 15 14 13 12 12 13 14 13 12 11 10 10 10 12 13 12 12 11 11
19 18 17 18 18 17 15 13 13 15 13 10 11 13 15 16 17 19 21 21 20 21 21 20 20 20 19 17 17 17 15 15 15 15 15 15 15 15 15 16 16 16 17 18 19 19 19 18 18 20 21 23 25 25 24 22 20 21 22 22 21 21 21 20 19 18 17 15 14 13 12 14 15 15 15 13 12 11 11 12 13 13 13 13 12
20 18 16 15 15 15 16 14 12 13 14 12 11 12 15 15 15 18 20 21 21 21 21 21 21 21 19 18 18 18 16 15 15 15 15 15 15 15 15 16 16 16 16 17 17 18 18 17 17 18 20 21 23 24 24 23 21 21 22 23 22 22 23 22 20 19 19 18 17 15 14 14 16 17 16 15 15 15 14 13 12 12 13 13 13
25 22 18 15 14 13 14 14 14 11 12 12 11 13 15 15 15 17 19 21 21 20 19 20 20 21 20 18 18 18 17 16 15 15 16 15 15 15 15 15 16 16 16 17 17 17 18 17 16 16 17 19 20 21 22 22 22 22 22 23 24 24 25 25 21 19 20 20 18 17 16 15 14 15 17 17 18 17 16 14 12 11 12 13 14
30 28 23 16 13 12 12 13 13 12 11 11 11 11 14 14 15 17 18 20 20 18 17 19 21 21 20 19 19 19 18 17 16 16 16 16 16 16 15 15 16 16 16 17 17 17 17 18 17 17 18 19 20 20 20 22 22 23 23 24 24 25 26 26 24 21 20 20 20 18 17 16 14 14 16 18 18 17 15 15 14 13 13 14 15
31 31 28 22 14 11 11 11 11 11 10 12 13 12 13 15 16 17 19 20 20 18 18 20 22 22 20 19 19 19 19 18 17 16 16 16 16 16 16 16 16 16 16 17 17 17 17 18 18 18 19 20 21 21 22 22 22 23 23 23 24 25 25 26 26 24 23 22 21 19 17 17 16 15 15 16 16 16 16 16 16 15 15 16 16
30 31 31 28 20 13 10 9 10 10 10 12 14 14 14 15 17 19 20 21 22 21 20 21 22 22 20 19 20 20 19 18 16 15 15 16 17 17 16 16 16 16 16 16 17 17 17 17 18 18 19 20 20 21 21 20 21 22 22 22 22 22 25 27 27 26 25 22 21 20 18 17 17 17 16 16 16 16 17 17 17 17 17 18 18
28 30 31 31 27 20 15 10 8 10 12 14 15 16 16 16 17 19 20 22 23 23 22 21 21 21 21 20 20 20 20 19 17 15 15 16 17 17 17 16 15 15 15 15 16 16 16 16 16 17 17 18 18 19 19 20 20 20 19 20 19 19 22 25 26 25 25 23 22 21 19 18 19 19 18 17 17 17 18 18 19 19 19 20 21
27 29 31 32 31 28 22 16 11 9 12 16 17 18 18 18 18 19 21 22 23 23 23 22 22 22 22 22 21 21 20 20 18 16 15 16 17 17 17 17 16 15 16 16 15 14 14 15 15 16 16 17 18 17 18 18 18 16 17 19 21 20 21 23 24 23 22 22 21 20 19 19 21 21 20 20 20 19 19 20 20 20 21 22 22
26 28 30 32 33 33 30 23 17 13 11 13 17 18 18 18 20 21 23 24 24 24 24 25 25 24 24 23 22 21 21 21 19 18 16 16 16 17 17 17 17 17 17 17 15 14 14 14 14 14 15 16 17 17 16 17 17 16 16 18 21 22 21 21 21 21 21 22 21 20 19 20 21 22 21 20 21 21 21 20 20 20 20 20 19
27 28 29 31 33 35 35 31 24 19 16 14 13 16 18 18 20 23 25 27 27 26 25 27 27 26 25 23 22 22 21 21 20 19 18 17 16 16 17 17 16 17 18 17 15 14 14 13 12 12 12 13 14 15 15 16 17 17 16 17 19 21 21 21 21 22 22 22 21 20 19 19 20 20 19 19 19 18 18 17 17 17 17 17 17
28 28 29 30 32 34 35 34 31 25 20 18 16 13 15 17 19 23 26 28 29 28 28 29 29 29 26 24 23 23 22 21 21 21 19 17 16 16 16 16 15 16 18 18 17 16 15 13 11 10 10 10 12 13 14 15 16 16 15 15 16 18 20 20 20 19 18 17 17 16 16 16 16 16 17 17 16 16 16 16 16 17 17 17 17
28 28 28 29 30 32 33 33 33 30 26 22 20 16 13 15 17 20 24 27 27 28 29 31 32 31 29 26 25 25 23 22 22 23 21 19 17 16 16 16 15 15 17 19 19 18 16 14 12 11 11 10 11 12 14 15 15 14 13 13 14 14 14 13 13 14 14 14 14 14 14 14 15 16 16 16 16 17 17 16 15 15 16 17 18
30 27 27 28 28 29 30 31 31 31 29 26 23 19 15 14 15 17 21 23 24 24 26 30 33 33 30 28 28 26 25 24 24 24 23 21 20 19 17 17 16 15 16 17 19 19 18 16 14 12 12 12 12 13 14 14 13 12 11 12 12 12 11 9 9 11 12 11 10 10 10 11 12 13 12 12 14 14 13 14 15 15 16 17 17
33 30 26 25 26 27 27 28 29 29 29 27 24 21 17 14 12 13 15 17 18 19 19 23 31 34 30 28 29 27 26 25 25 24 24 23 22 21 19 18 18 17 17 18 19 20 19 18 16 14 14 14 14 15 15 14 12 11 11 11 11 11 11 10 10 10 10 8 7 7 8 8 10 11 9 10 13 14 13 14 15 15 16 17 17
32 31 27 25 24 25 26 26 26 27 27 26 24 21 19 16 12 9 8 9 10 12 13 14 22 31 31 27 27 26 25 25 25 24 23 22 22 21 20 19 19 19 19 19 19 20 19 18 17 16 17 16 16 16 16 15 13 12 11 10 10 10 9 9 8 8 8 8 8 8 9 9 10 11 10 11 12 13 14 15 15 16 17 18 18
28 30 29 27 25 24 24 24 23 24 24 23 22 21 19 16 13 8 3 3 5 8 10 11 14 22 28 25 23 23 22 23 25 25 23 22 21 20 19 18 18 20 21 21 21 20 20 19 19 19 19 18 17 17 17 16 14 13 12 11 10 9 8 8 7 7 7 7 7 7 8 8 9 10 10 11 12 13 14 15 16 16 17 17 18
25 27 29 29 27 24 23 22 22 21 21 20 20 20 19 18 15 12 7 4 6 8 10 11 15 18 21 20 17 17 15 15 18 22 22 20 18 17 17 17 18 19 21 22 23 22 22 21 21 22 21 19 19 18 17 17 15 14 12 11 9 8 8 7 7 7 7 7 6 7 7 8 8 9 10 11 11 12 14 14 15 15 16 16 17
23 24 26 28 28 26 23 21 20 20 19 18 18 18 17 17 16 14 12 9 9 10 11 10 13 17 19 16 13 11 10 9 9 12 15 16 16 15 15 16 18 19 20 22 23 23 23 22 22 21 20 19 19 18 17 16 16 14 12 10 8 8 7 7 6 6 6 6 6 7 7 8 9 9 9 10 10 11 12 13 13 14 14 15 17
21 22 23 25 27 27 25 21 19 18 17 16 16 15 15 15 14 13 13 12 11 11 11 9 9 13 15 14 12 11 10 9 9 8 9 11 12 13 14 15 17 17 18 20 21 21 21 20 19 17 16 15 15 14 12 11 11 10 8 7 5 5 4 4 4 4 5 5 6 6 7 7 7 8 8 8 9 10 11 12 13 13 14 15 16
19 20 21 23 25 26 26 24 21 18 17 15 15 14 13 13 12 11 11 11 11 11 11 9 8 10 12 10 8 6 6 7 8 8 8 8 10 11 12 13 14 14 15 16 16 16 15 14 12 10 8 7 6 6 5 4 4 4 4 4 3 3 2 2 3 3 4 5 6 6 6 6 7 7 8 8 9 9 10 11 12 12 13 13 14
18 19 20 21 22 23 24 25 23 21 19 17 16 16 16 15 14 11 9 8 8 8 9 9 9 10 10 9 8 6 4 3 4 5 6 6 7 8 9 9 10 10 12 13 13 12 12 11 9 9 8 7 6 6 6 6 5 4 4 3 2 0 1 2 3 4 5 6 6 6 6 7 7 8 8 9 9 10 10 11 11 11 11 10 11
17 18 20 21 20 20 21 22 23 23 21 20 18 17 18 19 18 17 15 14 12 10 8 7 5 5 5 5 5 5 4 3 3 4 4 3 4 5 5 6 7 7 10 11 12 12 12 12 12 11 10 8 7 7 7 7 5 4 3 3 3 3 5 6 6 6 6 6 6 6 6 7 7 8 9 10 10 10 10 11 11 11 11 10 9
18 19 20 20 20 20 20 20 21 22 22 21 20 19 19 19 20 21 21 21 20 19 16 14 12 10 8 5 3 0 2 2 1 1 3 4 4 4 5 7 8 7 9 11 13 14 13 13 12 11 8 6 5 5 6 5 4 4 5 5 6 6 7 8 8 8 7 6 6 6 6 7 8 8 9 9 10 10 10 11 11 11 12 12 11
18 19 20 20 20 21 21 20 20 20 20 20 20 20 20 19 19 20 20 21 21 21 20 19 18 16 15 13 11 8 4 1 1 1 2 2 3 3 4 6 8 9 11 13 13 13 12 11 10 9 8 7 6 6 7 6 6 7 8 8 7 7 8 8 7 7 6 6 6 6 6 6 7 7 8 8 9 10 10 10 10 11 12 12 12
17 18 18 19 20 21 21 20 18 18 18 19 18 18 19 20 20 20 20 20 20 19 18 18 17 17 16 16 16 15 13 11 9 7 6 6 7 7 8 10 11 12 14 13 11 10 10 11 10 8 8 8 8 8 7 6 7 9 9 8 7 6 5 5 5 5 5 5 5 4 4 5 5 6 7 7 8 9 10 11 11 12 12 12 12
17 17 17 17 19 20 20 18 16 16 16 16 16 16 17 18 20 21 21 21 21 20 18 17 16 15 14 14 14 14 15 15 15 14 14 13 14 13 13 13 13 13 13 12 10 9 11 12 11 8 7 7 6 5 5 6 7 7 7 6 4 3 3 3 2 2 2 2 3 3 4 4 5 6 7 8 9 10 10 11 11 11 11 11 12
17 17 16 16 18 19 19 17 16 15 15 14 12 13 14 15 17 20 21 22 22 21 20 19 18 16 14 12 11 10 11 13 14 14 14 14 14 14 14 14 13 12 12 11 10 10 10 10 9 7 5 5 5 5 5 6 6 5 4 3 2 1 0 1 2 2 2 2 3 3 4 4 6 7 8 9 9 9 9 9 9 9 10 10 11
16 16 15 15 16 16 16 16 16 17 17 14 11 10 11 13 15 17 18 20 21 21 20 20 19 17 15 12 10 9 8 9 10 10 10 11 11 10 10 9 9 9 8 8 8 8 8 7 6 5 4 4 5 5 5 5 4 4 3 3 3 3 4 4 4 4 4 4 4 5 6 7 8 8 9 9 9 10 10 10 11 10 10 10 10
15 15 14 13 13 14 14 16 17 18 18 15 12 10 10 11 12 13 15 17 19 19 19 19 18 17 16 12 9 7 6 6 6 6 6 6 6 6 5 4 4 4 4 4 5 6 6 5 5 3 3 4 4 4 4 3 4 5 5 6 6 6 6 6 6 5 5 6 6 7 7 8 8 8 9 10 10 10 11 12 13 13 13 13 13
14 14 13 12 11 11 13 14 16 17 18 17 14 11 11 11 12 12 13 13 15 17 18 18 17 16 16 14 11 8 6 4 4 3 3 3 2 2 1 1 1 1 0 1 3 4 4 5 4 3 3 3 3 3 4 6 7 7 7 7 7 7 7 7 6 6 6 7 7 7 8 8 8 9 9 10 11 11 13 14 14 14 15 16 15
13 13 13 12 11 10 12 13 14 16 17 17 16 13 13 12 12 12 12 12 12 13 15 16 15 15 14 13 12 10 8 6 4 3 2 1 2 2 2 3 4 3 3 2 3 4 5 5 4 3 2 2 3 6 8 9 9 9 8 8 8 8 7 7 7 7 7 7 7 8 8 8 9 10 10 11 12 13 13 14 14 15 16 16 15
11 12 12 13 11 10 11 12 13 15 16 17 16 15 14 13 12 12 12 12 11 12 13 14 14 14 13 11 10 9 8 7 5 3 1 1 2 3 3 4 5 4 4 3 4 4 5 5 4 3 2 4 7 10 10 10 9 9 8 8 8 7 7 7 7 8 7 7 8 8 9 9 10 11 11 12 13 13 13 14 14 15 15 14 14
9 11 12 13 12 11 10 11 12 13 14 15 15 15 15 14 13 13 13 12 12 12 12 13 14 13 11 10 10 8 6 5 4 3 2 3 4 5 5 5 5 5 5 6 6 6 6 5 4 2 5 9 11 12 11 10 9 8 8 8 8 8 8 8 8 8 8 8 8 9 9 10 11 12 12 12 13 13 14 14 13 13 13 13 13
8 9 11 12 11 11 10 9 10 12 13 13 14 15 16 15 15 13 13 13 13 12 12 13 13 12 10 10 11 10 8 6 5 4 4 5 7 8 8 7 8 8 8 8 7 7 6 5 4 4 9 12 13 11 10 10 9 8 8 8 8 8 9 9 9 9 9 9 9 10 10 11 11 11 11 11 12 12 12 12 12 13 13 14 14
7 9 11 11 11 10 9 8 8 10 11 12 13 14 15 16 16 14 13 13 12 12 12 11 11 12 13 13 13 12 11 11 10 9 9 8 7 8 8 9 9 8 8 8 7 6 6 5 4 7 12 14 13 11 10 9 8 8 8 8 8 8 8 8 9 9 10 10 10 10 10 10 10 11 11 11 11 11 11 11 11 11 12 13 13
9 11 12 12 11 10 8 7 7 8 9 11 12 13 14 16 16 14 12 12 11 11 11 10 12 15 16 14 13 13 12 11 11 11 11 9 6 7 9 9 9 10 10 8 6 5 6 5 6 10 14 14 13 11 10 9 8 8 8 8 8 8 7 7 8 8 8 8 8 8 9 9 9 10 10 10 11 11 11 11 10 10 10 11 11
11 12 12 12 10 9 7 6 5 6 7 9 11 13 15 16 16 15 12 11 9 10 10 11 12 15 16 14 14 14 11 8 7 7 6 5 5 7 8 9 10 10 9 6 7 8 7 7 10 12 13 13 12 11 9 9 8 7 7 8 8 7 7 6 6 7 7 6 6 7 8 8 9 9 9 9 9 10 11 12 10 9 9 9 10
11 10 10 10 9 6 5 4 3 4 6 7 9 11 15 17 17 14 12 10 8 8 10 11 12 14 16 15 13 12 9 6 5 5 4 2 1 3 4 5 5 5 7 10 11 9 8 10 11 11 11 12 12 11 10 9 8 7 7 7 6 6 6 6 5 6 6 6 6 6 7 8 9 9 8 7 7 8 9 11 11 9 9 10 9
10 9 9 10 9 6 3 2 2 3 5 6 7 10 13 16 15 13 11 10 8 7 8 9 10 13 16 14 11 9 9 8 9 10 10 9 8 7 6 6 7 9 12 13 12 10 9 10 10 10 11 11 10 9 8 7 5 5 5 5 5 5 5 5 5 5 5 5 6 7 7 7 8 8 7 6 5 6 8 9 9 9 10 11 10
7 7 7 8 8 5 3 2 3 4 5 6 7 8 10 12 14 13 11 9 8 8 8 9 9 11 14 13 9 7 9 10 10 10 10 10 10 10 9 8 9 10 11 12 11 10 9 9 9 10 11 10 9 7 6 4 3 3 3 4 4 4 4 4 4 5 5 5 5 6 6 5 5 6 6 5 4 5 7 8 8 8 10 13 12
5 5 6 7 8 7 6 6 5 5 6 7 8 9 10 11 12 12 10 8 7 7 8 8 7 9 12 12 8 4 6 8 8 9 9 9 9 8 8 7 7 7 8 9 9 8 8 9 10 11 11 10 8 7 5 4 3 2 3 4 4 4 4 4 4 4 4 4 3 4 4 3 4 4 4 4 4 4 5 7 7 6 8 12 13
7 6 6 7 8 9 9 10 9 7 7 8 8 8 9 10 11 11 10 8 7 7 7 9 7 7 10 10 5 2 5 6 7 7 8 8 8 7 6 5 5 5 5 7 7 7 7 7 8 9 9 9 8 7 6 4 3 3 3 4 4 4 5 5 4 4 3 3 3 2 3 3 4 4 5 4 4 4 4 4 6 6 7 10 12
9 8 7 7 7 8 10 11 10 9 8 8 8 8 8 8 10 10 9 8 7 7 8 9 7 3 7 8 4 2 4 5 6 7 7 7 7 7 6 5 4 3 3 4 5 6 6 6 7 8 8 8 7 6 5 4 4 4 4 4 4 5 5 4 4 3 3 2 2 3 3 4 5 6 7 7 7 6 4 3 3 4 6 7 9
10 9 8 7 8 9 11 10 9 8 8 9 9 9 8 7 7 8 8 8 7 6 7 9 7 3 5 6 3 2 4 4 4 5 6 6 6 7 6 4 3 2 1 2 3 5 6 7 7 7 7 7 7 6 5 5 5 5 5 5 5 5 4 4 3 2 2 2 3 4 4 4 5 7 8 9 9 7 4 2 1 2 4 5 6
10 9 8 7 8 10 11 10 8 8 8 8 9 9 9 8 7 6 7 8 8 6 6 7 7 5 3 2 1 1 3 4 4 5 5 5 5 6 6 5 2 1 1 2 3 4 5 5 5 5 5 6 6 6 5 5 5 6 6 6 5 4 4 3 2 1 1 2 4 4 5 5 7 9 10 10 9 6 2 1 2 1 2 4 5
11 9 8 9 9 10 11 10 10 8 7 7 7 8 9 9 8 5 5 6 8 8 7 6 7 6 4 3 3 1 4 4 4 4 6 5 4 3 4 4 3 1 1 2 3 3 3 2 2 2 3 4 5 6 5 6 6 6 6 6 5 4 3 2 1 0 1 3 4 5 6 7 9 10 11 9 6 2 1 3 4 3 1 3 4
Wind_Direction
315 315 321 325 322 312 298 287 277 264 251 250 253 244 231 231 234 234 230 227 225 223 226 231 234 236 237 238 238 238 240 242 241 239 238 237 234 231 229 228 227 228 228 225 223 223 223 219 214 210 208 208 210 211 211 210 210 210 213 216 219 225 229 232 241 247 204 185 184 188 193 197 198 195 195 197 194 194 195 193 192 196 205 214 221
322 321 320 323 324 320 309 295 278 258 247 247 245 234 226 225 229 232 230 227 226 223 224 228 232 236 237 239 238 237 239 240 238 237 236 235 232 229 229 228 228 228 226 223 223 223 223 221 217 214 212 211 212 215 216 214 212 212 211 212 214 220 225 228 234 239 216 192 188 189 191 194 196 196 200 204 204 205 207 208 208 208 214 223 227
326 327 323 317 313 311 313 309 287 264 256 253 242 230 227 227 228 232 232 230 229 226 223 223 227 233 240 242 239 238 240 239 238 237 237 235 233 231 230 228 227 228 227 225 225 224 223 221 220 219 216 213 213 216 218 217 215 215 213 211 213 218 223 226 228 230 223 206 199 198 197 195 193 192 198 207 213 216 217 219 222 223 228 235 238
325 327 327 323 316 308 307 310 303 290 278 260 244 233 230 231 230 233 235 233 231 229 226 225 226 230 238 242 241 240 240 239 238 239 239 237 236 234 232 229 227 228 228 228 228 224 223 224 225 223 219 215 214 216 217 217 216 216 214 213 214 217 220 222 224 228 227 217 210 210 209 204 199 198 203 211 217 222 221 220 223 225 231 240 244
329 325 323 323 323 319 312 307 301 299 294 264 247 238 229 227 231 235 237 235 230 228 229 231 231 232 235 241 245 243 238 238 239 240 240 238 235 234 233 229 227 228 227 227 227 225 225 228 228 225 219 216 215 216 215 217 218 217 216 216 216 216 218 220 223 227 227 221 219 223 223 220 212 208 210 215 223 228 225 222 223 224 227 233 237
339 332 324 321 322 323 322 314 292 282 278 260 243 233 223 222 227 234 236 233 228 227 231 234 235 236 237 241 246 243 237 238 240 238 237 237 235 234 231 227 226 227 226 225 225 226 227 228 227 224 221 218 216 215 214 216 220 220 218 218 218 217 218 220 224 226 223 223 226 234 242 239 228 220 215 216 225 233 233 230 230 229 228 226 226
351 343 333 324 322 321 322 323 307 278 265 256 242 230 224 223 229 237 238 233 228 229 234 236 235 236 238 242 246 244 239 240 240 235 233 233 233 231 227 226 226 225 223 222 223 225 225 224 223 220 218 217 216 216 217 219 223 224 220 220 222 221 219 221 223 222 222 226 229 238 253 253 239 230 226 222 227 234 237 237 237 234 231 228 228
3 357 348 333 323 318 314 319 321 297 265 252 241 231 228 228 232 238 240 236 232 231 235 236 236 236 237 240 245 244 240 240 238 233 230 229 229 229 228 228 227 224 221 219 221 222 219 216 216 215 214 216 218 219 221 223 225 224 221 221 224 225 223 222 220 218 222 228 232 242 255 250 237 232 231 229 228 230 232 237 240 238 236 237 239
7 6 3 351 330 316 309 309 315 309 281 259 248 240 237 235 236 238 240 239 236 232 230 231 235 238 237 239 243 242 238 236 233 230 228 226 227 228 228 228 228 225 222 219 217 217 214 213 214 213 214 216 218 220 221 223 225 224 222 222 224 226 225 223 220 219 224 230 234 244 248 238 229 231 232 230 229 228 229 235 241 244 247 250 252
11 11 11 7 348 318 305 298 298 300 286 264 255 252 246 240 238 238 238 239 238 233 228 231 237 240 241 243 244 241 236 231 228 228 228 226 226 226 226 226 226 224 221 217 215 214 212 213 214 213 213 214 216 218 219 221 224 224 223 222 224 226 226 224 221 222 228 233 237 243 241 229 226 231 233 234 234 231 231 236 242 248 254 259 262
16 16 14 11 2 337 310 291 279 279 275 261 252 251 250 243 238 237 237 239 240 236 231 233 239 243 244 244 241 237 233 230 227 229 231 229 227 223 222 223 223 221 218 215 215 213 211 211 212 211 211 212 214 215 216 220 226 227 223 222 225 229 227 222 219 223 230 234 238 241 238 230 229 231 235 240 242 238 236 239 244 250 255 261 264
19 19 17 15 11 360 340 317 287 267 265 262 253 247 246 243 238 238 238 238 238 236 234 235 239 243 242 237 232 230 232 233 234 237 237 232 227 223 221 220 219 218 215 213 211 211 210 211 211 210 210 211 211 212 216 221 225 224 222 220 223 227 225 219 218 224 230 235 239 242 240 235 234 236 240 244 246 245 243 243 246 251 256 260 263
20 20 20 18 17 13 2 347 325 290 267 262 258 252 247 243 239 238 237 236 237 237 235 234 235 238 235 229 225 227 232 236 240 244 241 232 226 224 220 217 218 217 215 211 208 210 213 214 213 211 209 208 209 213 218 219 216 215 218 221 219 218 219 218 219 223 229 234 239 242 240 237 237 241 244 245 246 248 247 248 250 254 258 261 264
21 21 21 20 19 18 15 8 354 333 306 280 266 258 254 250 245 239 236 235 236 238 237 231 229 231 230 226 226 230 233 237 241 244 239 230 227 225 220 219 220 219 215 210 207 212 214 213 212 212 213 212 212 216 216 213 210 209 214 218 216 212 212 214 217 221 227 232 234 234 236 237 239 244 247 246 247 249 250 251 253 256 259 263 266
24 21 20 20 19 19 18 18 13 359 343 327 298 269 258 255 251 243 238 235 235 238 236 229 227 228 227 226 229 231 234 237 239 239 235 229 226 223 221 221 220 218 214 208 207 210 208 207 209 212 214 216 216 216 213 209 211 212 211 212 212 210 210 211 214 218 222 226 226 225 229 235 238 243 246 245 246 249 251 253 254 255 256 258 259
26 22 19 17 17 18 18 18 19 16 6 354 340 304 270 257 253 247 241 236 235 237 235 229 227 228 226 226 228 230 234 236 234 233 231 228 226 223 222 221 219 217 214 208 208 210 207 206 209 207 208 213 214 213 211 209 213 215 212 205 200 200 200 199 202 207 211 215 216 216 221 226 229 234 237 238 240 243 244 243 244 246 250 252 256
26 23 19 16 15 16 18 17 18 20 18 11 1 341 297 264 252 247 242 236 233 234 233 229 228 228 226 224 224 227 232 232 228 227 226 225 224 223 222 221 219 220 219 213 210 211 210 210 211 206 203 205 205 207 209 211 213 216 215 207 199 196 191 182 182 190 196 198 199 201 205 207 211 217 221 226 231 235 238 243 249 256 263 268 271
26 23 19 16 14 15 18 20 19 19 20 18 10 355 326 285 256 243 238 233 229 228 229 228 228 227 223 220 219 222 227 228 224 223 223 224 223 221 221 223 221 222 225 218 211 211 212 212 212 209 205 203 200 200 204 209 211 213 215 215 214 214 211 202 195 199 201 196 192 199 204 207 216 224 226 233 244 251 259 267 274 277 278 279 281
28 24 20 18 16 16 18 21 21 20 21 20 16 7 351 323 287 257 240 230 222 216 213 218 223 222 216 213 214 217 221 223 222 222 222 224 225 222 221 224 223 221 222 217 211 209 211 213 211 206 203 202 199 197 200 204 208 212 215 217 219 218 215 212 211 216 226 233 239 248 252 252 257 263 266 268 273 281 288 287 287 289 288 288 289
30 28 25 22 21 19 18 20 22 25 26 26 24 21 14 358 334 299 261 233 216 203 187 184 201 207 207 208 211 212 216 218 218 219 221 222 224 223 222 223 223 221 219 215 211 207 206 210 208 201 201 204 202 201 201 203 207 214 216 217 219 215 210 213 218 227 243 256 263 268 272 273 276 281 287 289 290 293 295 294 295 295 293 293 293
29 31 30 28 26 25 24 23 26 30 32 31 32 35 36 29 16 1 314 207 174 169 159 138 145 175 190 199 203 204 206 209 210 211 214 217 220 221 221 220 220 220 217 213 211 208 203 201 198 193 195 200 201 202 203 203 207 212 215 217 221 219 218 226 236 244 253 260 264 267 271 275 278 282 287 291 293 294 294 294 295 295 295 297 298
26 29 32 32 31 30 29 28 30 33 34 34 36 42 49 52 50 47 51 88 113 120 133 119 104 127 157 172 180 186 190 194 197 200 202 204 208 213 216 215 213 215 213 208 205 203 199 194 190 186 188 192 195 198 202 204 205 207 209 212 215 216 219 226 234 241 247 255 262 265 269 275 280 285 290 292 293 294 294 295 297 299 302 304 304
24 26 31 34 33 32 32 30 30 31 34 39 41 45 51 55 60 63 65 74 85 88 96 99 90 101 121 132 137 151 160 161 168 178 184 189 192 196 201 202 200 202 204 199 195 193 191 188 184 182 184 188 189 189 192 195 197 196 198 199 199 202 209 215 223 234 243 254 263 269 275 281 285 290 293 295 295 295 294 296 300 304 306 306 306
22 25 30 34 35 34 33 33 32 31 32 35 39 45 49 50 56 66 71 75 83 83 84 83 75 83 98 105 105 110 116 119 124 137 158 175 180 180 183 185 185 188 189 185 180 179 180 180 178 177 181 186 187 186 187 189 190 189 189 193 194 196 206 218 231 247 259 268 274 279 284 287 291 295 296 299 302 303 302 302 305 307 309 310 309
21 26 30 35 37 36 35 35 35 32 29 25 24 27 29 29 36 49 60 67 75 82 86 86 74 73 85 96 104 108 107 110 117 120 130 151 164 166 167 166 167 173 176 171 168 168 167 164 161 161 164 165 169 175 174 164 159 160 161 165 172 185 211 238 261 276 285 289 293 296 299 300 301 304 306 309 312 313 312 310 310 313 315 315 316
21 28 32 34 36 37 38 38 37 34 31 28 26 25 23 20 22 27 34 44 54 63 71 76 75 78 88 99 107 110 102 99 114 118 119 135 150 155 158 155 151 154 154 149 146 146 142 132 116 105 102 101 102 108 109 106 103 107 115 122 130 194 281 300 306 305 304 305 306 308 310 311 311 310 312 314 316 317 318 316 316 318 318 318 320
23 29 32 32 31 33 35 37 38 37 35 33 33 33 33 33 33 35 38 39 37 36 37 44 55 66 81 97 109 119 122 107 89 90 96 115 132 132 130 123 120 126 128 121 115 114 117 117 107 95 89 91 96 97 96 94 86 71 54 32 6 346 334 329 323 316 312 312 312 313 315 318 321 321 320 321 322 322 324 323 320 320 320 322 324
27 28 28 28 28 27 28 29 30 33 35 35 34 34 34 34 33 35 37 38 37 36 36 38 44 47 48 48 43 46 203 205 189 83 80 85 94 100 98 95 96 104 109 106 105 106 109 113 115 111 105 102 95 84 78 66 38 10 357 349 343 335 324 317 316 316 318 319 320 323 327 328 329 328 326 327 328 328 329 329 328 328 329 331 331
23 23 20 20 22 24 23 22 21 24 29 32 34 35 36 37 36 34 34 35 34 33 33 35 40 44 46 49 50 51 55 73 199 199 175 146 136 136 127 113 109 111 113 114 118 122 121 119 120 122 122 114 93 69 52 33 2 338 328 324 322 316 309 308 314 320 328 333 335 338 338 336 333 332 333 333 333 334 336 337 339 340 340 340 341
14 14 12 12 13 14 16 16 16 19 23 26 30 34 36 38 39 38 38 36 35 33 34 35 36 37 39 44 50 57 65 72 79 89 105 119 124 127 131 132 130 129 128 127 130 132 126 113 100 90 87 83 73 57 38 11 338 316 310 308 306 304 304 312 322 330 337 342 345 346 347 345 342 342 343 344 345 346 347 348 347 347 347 349 353
10 10 10 10 8 7 9 12 13 15 18 19 24 30 33 36 40 41 40 38 36 34 35 35 36 36 37 40 47 55 63 68 73 77 82 89 94 96 99 103 105 107 108 105 97 93 92 88 76 59 47 44 39 20 347 323 308 298 296 296 298 304 313 319 329 341 354 359 2 3 1 359 359 359 0 1 360 358 357 355 353 353 357 1 3
10 8 8 8 5 4 9 14 14 13 12 11 16 22 24 28 36 40 39 35 33 32 32 33 33 32 31 34 41 48 57 64 67 69 72 76 80 81 81 80 78 75 74 70 59 51 53 56 52 37 16 0 344 322 306 299 293 282 274 270 266 260 86 90 94 84 63 48 41 30 23 19 17 15 13 12 11 9 9 10 10 9 9 8 7
9 9 9 8 3 1 8 16 17 15 11 6 7 13 16 21 31 37 37 31 26 24 27 29 31 29 26 25 25 28 38 51 58 61 65 69 72 73 70 67 66 62 54 42 33 30 29 27 20 2 339 320 303 291 284 274 262 245 218 185 156 140 127 111 97 84 69 59 49 38 33 30 26 24 22 22 23 23 22 22 24 22 18 14 12
6 9 10 7 360 358 9 19 21 21 19 13 6 4 6 12 19 26 31 28 22 17 17 20 23 25 24 23 24 23 22 26 32 41 54 64 69 71 68 63 64 63 52 23 8 10 10 2 350 329 301 284 272 267 255 218 186 169 155 144 133 123 113 100 89 79 68 60 51 44 42 39 36 34 35 35 35 32 29 28 28 27 26 24 23
3 8 9 4 358 0 11 18 21 23 24 22 17 9 2 3 7 10 14 18 18 13 9 9 14 18 19 20 26 33 36 36 29 23 29 52 80 105 131 179 209 179 147 316 330 342 345 339 329 301 264 252 240 213 179 158 148 141 135 129 121 111 101 93 85 76 68 61 55 51 49 47 46 47 46 44 40 36 35 35 34 32 29 27 26
4 8 7 4 1 3 8 15 21 23 22 21 21 17 6 359 359 359 358 1 7 8 5 4 9 13 12 12 17 26 35 45 49 47 41 65 122 155 197 233 245 248 251 269 298 319 325 321 308 280 244 213 177 158 150 145 140 133 126 117 107 100 94 88 81 75 69 65 62 59 56 54 53 52 50 48 45 44 42 40 37 36 34 31 29
7 8 6 3 2 1 3 12 21 23 20 18 18 15 8 359 350 346 344 344 348 355 359 2 6 8 6 5 9 16 25 29 30 34 49 141 173 182 215 250 257 257 265 281 292 303 311 307 290 263 199 160 153 148 144 140 135 127 119 110 101 96 91 86 82 79 76 72 68 65 61 57 56 56 55 52 49 48 45 42 39 39 39 38 36
11 9 5 0 358 357 0 9 18 20 20 20 16 10 6 0 350 342 339 339 341 347 353 358 1 1 357 356 357 360 7 12 4 344 294 250 234 231 242 257 263 267 276 284 288 293 295 289 273 222 155 149 148 145 142 139 133 124 116 109 103 100 96 92 88 85 79 75 72 68 65 62 60 58 56 52 47 44 43 43 42 41 39 36 33
5 4 359 353 351 354 359 5 11 12 14 17 14 8 6 1 353 346 341 338 339 344 348 353 358 360 357 353 349 341 334 332 328 316 299 281 265 257 256 257 260 267 273 276 282 283 276 267 249 168 148 149 149 147 145 143 135 127 121 115 111 108 104 99 93 88 84 82 81 76 70 65 61 58 54 51 48 45 43 43 42 40 37 34 31
345 347 346 342 340 345 352 356 1 4 8 12 10 5 3 0 355 350 345 339 339 344 348 352 2 7 2 355 348 338 325 315 308 303 301 297 279 258 252 253 253 258 265 270 275 273 258 241 202 159 152 153 153 153 153 149 142 136 129 122 119 117 113 107 100 94 90 88 86 82 75 69 65 62 59 55 49 43 38 35 32 31 31 30 28
329 329 329 328 327 329 335 343 351 358 6 9 5 2 1 359 357 355 351 344 343 348 349 352 4 8 0 349 343 341 333 317 304 296 291 288 266 238 240 246 245 248 258 262 250 233 222 201 166 152 153 156 160 162 160 155 149 144 139 134 131 128 121 114 106 97 90 86 85 82 76 70 65 62 61 56 48 40 33 27 23 20 18 17 17
328 326 324 323 319 316 321 335 348 358 6 6 2 1 1 0 359 359 358 353 351 357 357 353 358 3 358 346 344 348 344 328 317 308 290 273 243 223 229 238 239 242 243 220 191 191 190 166 147 142 144 150 157 161 159 157 157 156 154 151 145 137 128 119 110 101 94 90 85 79 72 65 58 54 53 50 44 40 34 28 23 19 14 9 8
346 352 357 355 345 334 336 347 341 348 1 3 0 3 3 359 357 1 5 356 348 357 360 353 355 2 1 354 352 357 360 3 25 44 50 52 111 170 193 210 211 197 172 160 164 173 168 150 143 141 139 142 147 151 154 156 158 158 158 157 153 146 136 123 111 104 100 93 84 75 68 60 51 47 44 38 34 32 28 25 25 22 13 8 12
0 14 25 21 10 2 9 8 335 335 353 357 356 359 359 355 353 2 11 6 352 349 351 349 356 10 14 10 8 19 32 49 65 68 66 68 79 93 108 121 131 138 145 151 158 165 160 153 152 151 149 148 149 150 150 151 152 150 148 144 142 143 135 119 109 106 99 90 80 72 65 57 49 42 36 29 23 16 13 16 24 27 18 11 13
358 6 12 12 10 9 6 344 321 319 331 338 341 344 347 348 350 358 8 12 3 354 347 344 359 22 26 19 15 31 50 57 63 66 67 68 72 79 86 95 109 126 142 153 161 165 162 157 155 156 158 158 156 150 148 150 150 145 138 130 126 129 126 118 115 110 97 83 74 68 61 54 47 40 32 23 13 4 4 10 18 23 19 14 14
334 333 332 336 340 340 335 329 327 327 325 323 325 329 335 341 346 350 357 5 5 357 345 339 353 26 31 18 11 45 71 63 60 66 68 67 67 69 76 86 98 116 133 144 151 154 151 147 148 152 156 158 157 157 163 171 170 156 139 127 120 117 118 119 118 111 96 78 64 58 51 39 31 26 21 14 1 352 357 6 9 8 8 9 12
318 311 313 318 320 321 321 318 319 326 329 322 317 319 327 333 338 344 351 355 356 356 347 333 337 19 33 19 8 92 96 73 69 72 68 65 67 68 67 73 86 102 120 129 133 136 140 145 151 156 162 169 174 179 186 191 187 172 151 133 123 121 124 122 115 106 94 74 50 36 22 5 355 349 345 345 339 327 325 344 358 4 7 8 13
321 310 307 310 316 322 322 316 312 316 327 328 320 313 315 323 331 339 345 346 346 352 348 333 325 20 44 26 14 125 114 86 79 76 62 54 56 57 57 66 76 80 100 120 127 137 151 165 172 176 182 190 194 196 200 203 192 176 159 148 142 139 133 123 113 102 87 55 15 355 344 340 338 335 334 336 336 327 312 307 337 4 15 16 23
321 315 309 307 314 323 326 323 317 320 331 336 329 316 308 313 326 333 337 338 338 342 342 332 326 7 51 35 29 95 97 73 62 58 47 37 32 30 32 46 68 80 107 137 150 166 179 190 198 201 204 208 210 212 214 207 191 177 169 163 158 151 138 126 119 105 69 17 0 355 350 343 338 335 333 332 331 328 318 291 282 18 26 25 31
314 310 305 303 312 323 327 323 319 321 329 338 338 329 315 309 314 324 329 331 331 328 326 322 319 328 11 44 36 21 34 34 30 22 14 9 8 9 9 12 26 72 126 156 172 182 189 199 209 218 219 217 215 214 209 196 185 179 174 169 164 157 147 140 130 90 11 351 357 2 355 343 339 337 333 329 325 321 314 218 176 149 43 31 35
311 301 294 293 303 315 321 317 312 311 316 328 342 341 325 309 303 309 326 332 329 324 317 311 308 306 286 210 195 273 329 338 340 342 340 336 332 345 4 8 16 57 124 169 191 202 215 227 234 241 232 213 203 200 195 187 181 179 176 171 168 165 160 152 138 344 319 325 341 347 342 336 338 339 336 331 329 332 137 152 157 151 75 30 27